Location: Newark
(44.1039°N, 103.0983°W)
Time: 20:17:34
(UTC+00:00)

N. Korean satellite - Visible Passes

Search period start: 18 January 2020 00:00
Search period end: 28 January 2020 00:00
Orbit: 454 x 508 km, 97.2° (Epoch: 18 January)

Date Brightness Start Highest point End Pass type
(mag) Time Alt. Az. Time Alt. Az. Time Alt. Az.
18 Jan 9.0 00:30:21 10° SSW 00:33:18 26° W 00:36:14 10° NW visible
18 Jan 9.3 11:55:04 10° NE 11:57:39 19° E 12:00:15 10° SE visible
18 Jan 7.4 13:28:02 10° NNW 13:31:02 27° WNW 13:34:04 10° SW visible
19 Jan 6.5 13:02:12 10° N 13:05:39 56° WNW 13:09:08 10° SSW visible
20 Jan 6.9 12:36:40 10° NNE 12:40:11 66° ESE 12:43:44 10° S visible
21 Jan 9.7 00:48:00 10° SW 00:50:16 17° W 00:52:33 10° NW visible
21 Jan 8.5 12:11:27 10° NNE 12:14:38 30° E 12:17:50 10° SSE visible
21 Jan 8.0 13:45:23 10° NNW 13:47:49 18° WNW 13:50:16 10° WSW visible
22 Jan 8.5 00:21:30 10° SSW 00:24:38 33° W 00:27:47 10° NNW visible
22 Jan 9.7 11:46:47 10° NE 11:48:59 16° E 11:51:12 10° SE visible
22 Jan 7.2 13:19:15 10° N 13:22:29 34° WNW 13:25:45 10° SW visible
23 Jan 6.4 12:53:31 10° N 12:57:04 73° WNW 13:00:39 10° SSW visible
24 Jan 10.3 01:06:47 10° W 01:07:17 10° W 01:07:49 10° W visible
24 Jan 7.4 12:28:04 10° NNE 12:31:33 51° E 12:35:05 10° S visible
25 Jan 9.5 00:38:56 10° SW 00:41:35 21° W 00:44:15 10° NW visible
25 Jan 9.0 12:02:59 10° NE 12:05:59 24° E 12:08:59 10° SSE visible
25 Jan 7.8 13:36:27 10° NNW 13:39:16 22° WNW 13:42:05 10° WSW visible
26 Jan 10.0 11:38:40 10° ENE 11:40:17 13° E 11:41:56 10° ESE visible
26 Jan 6.9 13:10:29 10° N 13:13:54 43° WNW 13:17:21 10° SW visible
27 Jan 6.5 12:44:50 10° NNE 12:48:27 87° ESE 12:52:05 10° SSW visible
